Total_Precipitation_Accumulation
2.01 2.43 2.72 3.27 3.87 4.26 4.66 4.81 4.82 4.75 4.59 4.25 3.96 3.72 3.48 3.26 3.01 2.81 2.72 2.63 2.54 2.76 3.21 3.03 3.27 3.20 3.20 3.21 3.26 3.40 3.32 3.04 3.24 3.33 2.92 2.36 1.92 1.89 1.67 1.61 1.66 1.71 1.70
1.92 2.44 2.73 2.95 3.40 3.90 4.35 4.67 4.82 4.70 4.34 4.00 3.83 3.73 3.70 3.31 3.01 2.96 3.09 2.92 2.93 2.97 3.01 3.19 3.13 3.19 3.31 3.25 3.24 3.38 3.18 2.83 3.11 3.46 3.54 2.87 2.45 1.99 1.51 1.62 1.73 1.88 1.97
2.19 2.46 2.65 2.80 3.07 3.46 3.75 3.86 4.03 3.98 3.84 3.89 3.92 3.87 3.91 3.49 3.40 3.39 3.40 3.19 3.18 3.19 3.20 3.16 3.05 3.06 2.87 2.94 3.03 3.04 3.06 2.99 2.94 3.27 3.62 3.19 2.69 2.34 1.77 1.63 1.65 1.90 2.19
1.83 2.00 2.31 2.62 2.79 3.01 3.32 3.54 3.60 3.56 3.49 3.60 3.68 3.58 3.41 3.27 3.43 3.71 3.64 3.34 3.13 2.99 2.82 2.75 2.90 2.92 2.70 2.74 2.41 2.56 2.76 2.79 2.64 2.92 3.01 3.05 3.03 2.93 2.26 1.81 1.64 1.80 2.01
1.59 1.69 1.90 2.22 2.33 2.61 2.88 3.12 3.38 3.49 3.44 3.51 3.49 3.52 3.37 3.37 3.43 3.42 3.43 3.22 3.04 2.72 2.40 2.41 2.60 2.56 2.47 2.39 2.29 2.44 2.35 2.32 2.39 2.62 2.82 2.90 2.98 2.86 2.68 2.25 2.18 2.12 1.98
1.42 1.61 1.78 2.04 2.17 2.28 2.40 2.53 2.73 3.01 3.18 3.24 3.22 3.26 3.22 3.21 3.15 3.08 2.95 2.74 2.60 2.39 2.13 2.02 2.19 2.29 2.32 2.29 2.27 2.35 2.27 2.31 2.45 2.46 2.52 2.75 2.76 2.73 2.89 2.49 2.33 2.31 2.06
1.12 1.34 1.49 1.65 1.83 1.95 2.02 2.11 2.31 2.63 2.79 2.79 2.78 2.90 2.98 2.99 2.92 2.89 2.72 2.49 2.27 2.02 1.99 2.00 2.08 2.12 2.18 2.06 2.13 2.21 2.28 2.45 2.52 2.43 2.37 2.49 2.54 2.66 2.90 2.86 2.58 2.44 2.24
0.88 1.03 1.29 1.56 1.72 1.68 1.73 1.82 2.07 2.33 2.44 2.38 2.51 2.74 2.83 2.91 2.82 2.85 2.55 2.27 2.08 2.01 2.08 2.06 1.92 1.88 1.99 1.88 2.15 2.10 2.19 2.43 2.49 2.25 2.48 2.51 2.53 2.82 3.04 3.13 3.21 2.90 2.61
0.89 0.96 1.04 1.24 1.33 1.34 1.42 1.56 1.93 2.24 2.37 2.42 2.55 2.65 2.75 2.74 2.67 2.55 2.33 2.11 2.13 2.08 2.21 2.17 2.05 1.93 2.01 2.14 2.43 2.39 2.35 2.56 2.54 2.51 2.69 2.64 2.61 2.79 2.92 3.10 3.31 3.39 3.05
0.71 0.77 0.80 0.91 1.03 1.23 1.48 1.65 1.79 2.08 2.21 2.26 2.38 2.43 2.66 2.57 2.41 2.31 2.12 1.95 1.88 1.94 2.14 2.27 2.18 2.07 2.11 2.29 2.49 2.51 2.65 2.81 2.81 2.87 2.93 2.87 2.72 2.83 2.89 2.93 3.18 3.47 3.40
0.58 0.62 0.77 0.90 1.05 1.21 1.41 1.50 1.53 1.69 1.83 1.94 2.13 2.13 2.16 2.23 2.30 2.16 1.91 1.83 1.83 1.90 1.98 2.18 2.25 2.20 2.23 2.34 2.42 2.38 2.69 2.82 2.84 2.82 2.81 2.77 2.88 2.89 2.81 2.91 3.08 3.34 3.43
0.66 0.68 0.86 1.02 1.12 1.25 1.29 1.30 1.35 1.50 1.65 1.83 2.03 2.12 2.12 2.17 2.19 2.06 1.88 1.83 1.87 1.94 1.97 2.11 2.15 2.05 2.06 2.27 2.31 2.36 2.63 2.78 2.67 2.66 2.66 2.46 2.51 2.57 2.46 2.60 2.68 2.82 3.06
0.77 0.83 0.93 0.99 0.99 1.08 1.19 1.19 1.16 1.31 1.51 1.73 2.06 2.25 2.28 2.22 2.15 2.00 1.77 1.71 1.71 1.81 1.87 1.90 1.94 1.99 2.12 2.23 2.23 2.25 2.25 2.27 2.35 2.58 2.68 2.47 2.44 2.34 2.33 2.36 2.35 2.44 2.57
0.79 0.90 0.92 1.03 0.99 0.95 1.04 1.03 1.06 1.16 1.41 1.64 1.84 1.94 1.86 1.80 1.84 1.77 1.64 1.57 1.59 1.66 1.75 1.83 1.93 1.99 2.06 2.11 2.19 2.25 2.17 2.15 2.19 2.33 2.40 2.36 2.33 2.27 2.36 2.26 2.25 2.33 2.48
0.71 0.79 0.79 0.86 0.91 0.99 1.04 0.93 0.94 1.00 1.15 1.36 1.46 1.59 1.59 1.56 1.55 1.62 1.66 1.67 1.76 1.74 1.81 1.88 1.90 1.91 1.90 1.83 1.87 1.95 1.97 2.09 2.05 1.96 1.98 2.00 2.04 2.03 2.06 1.92 2.07 2.30 2.44
0.51 0.50 0.68 0.77 0.74 0.77 0.85 0.76 0.80 0.94 1.10 1.20 1.31 1.52 1.65 1.67 1.66 1.70 1.81 1.85 1.83 1.82 1.86 1.82 1.87 1.88 1.63 1.80 1.82 1.82 1.92 2.00 2.00 1.91 1.81 1.72 1.72 1.66 1.66 1.62 1.70 1.97 2.18
0.49 0.44 0.53 0.69 0.70 0.71 0.71 0.81 0.94 1.07 1.19 1.33 1.47 1.64 1.74 1.82 1.83 1.80 1.93 1.88 1.88 1.94 1.89 1.83 1.83 1.87 1.93 1.97 1.80 1.66 1.63 1.74 1.80 1.78 1.76 1.56 1.47 1.63 1.61 1.63 1.60 1.62 1.77
0.50 0.49 0.50 0.53 0.59 0.66 0.72 0.88 1.18 1.43 1.48 1.62 1.81 1.90 1.99 1.92 1.90 1.91 1.95 2.03 2.10 2.13 2.10 2.04 1.96 1.95 1.92 1.90 1.70 1.69 1.63 1.67 1.69 1.72 1.76 1.74 1.64 1.68 1.80 1.77 1.70 1.58 1.53
0.51 0.54 0.59 0.63 0.71 0.77 0.81 1.00 1.24 1.55 1.73 1.79 1.88 2.02 2.11 2.14 2.14 2.16 2.13 2.21 2.32 2.27 2.18 2.12 2.13 2.06 2.07 2.14 1.95 1.96 1.83 1.84 1.86 1.89 1.89 1.85 1.74 1.86 1.82 1.74 1.73 1.67 1.64
0.63 0.64 0.67 0.81 0.99 1.07 1.09 1.22 1.35 1.50 1.69 1.76 1.87 2.04 2.27 2.31 2.33 2.47 2.55 2.50 2.45 2.30 2.30 2.29 2.25 2.24 2.28 2.52 2.32 2.15 2.01 2.02 2.02 2.11 2.09 2.11 1.94 1.92 1.86 1.72 1.75 1.76 1.75
0.75 0.73 0.75 0.91 1.15 1.29 1.33 1.42 1.58 1.68 1.70 1.78 1.93 2.12 2.29 2.37 2.44 2.61 2.67 2.63 2.57 2.52 2.47 2.39 2.44 2.44 2.42 2.59 2.36 2.17 2.05 2.11 2.24 2.23 2.14 2.17 2.17 1.98 1.99 1.91 1.83 1.81 1.78
0.85 0.87 0.93 1.08 1.29 1.46 1.43 1.50 1.60 1.65 1.70 1.71 1.85 2.00 2.15 2.17 2.25 2.51 2.60 2.66 2.67 2.59 2.49 2.44 2.32 2.37 2.36 2.30 2.18 2.09 2.05 2.14 2.24 2.29 2.21 2.18 2.16 1.95 1.87 1.73 1.70 1.74 1.63
0.89 0.95 1.02 1.19 1.42 1.59 1.61 1.69 1.60 1.69 1.74 1.77 1.91 2.07 2.16 2.20 2.31 2.41 2.44 2.51 2.55 2.48 2.36 2.38 2.33 2.29 2.30 2.30 2.07 1.85 1.82 1.87 1.89 2.02 2.15 2.08 1.97 1.77 1.58 1.54 1.51 1.42 1.30
0.83 0.88 1.00 1.07 1.17 1.36 1.54 1.65 1.72 1.78 1.79 1.83 1.90 2.00 2.12 2.14 2.21 2.32 2.41 2.51 2.58 2.64 2.52 2.39 2.29 2.28 2.24 2.12 1.93 1.74 1.67 1.77 1.90 1.99 2.04 1.91 1.79 1.60 1.46 1.37 1.26 1.20 1.26
0.85 0.86 0.95 0.99 1.05 1.14 1.27 1.36 1.49 1.63 1.70 1.76 1.83 1.86 1.91 2.03 2.14 2.18 2.27 2.25 2.33 2.34 2.31 2.23 2.20 2.19 2.13 1.98 1.90 1.72 1.60 1.72 1.91 1.98 1.99 1.83 1.76 1.67 1.56 1.47 1.41 1.39 1.39
0.93 0.94 0.94 0.93 0.97 1.04 1.20 1.32 1.43 1.59 1.72 1.79 1.82 1.76 1.72 1.80 1.88 1.95 1.95 1.96 1.90 1.90 1.85 1.86 1.84 1.78 1.69 1.58 1.46 1.45 1.47 1.55 1.72 1.73 1.81 1.88 1.83 1.77 1.67 1.56 1.48 1.44 1.42